Hourly Data Report for October 31, 2013

All times are specified in Local Standard Time (LST). Add 1 hour to adjust for Daylight Saving Time where and when it is observed.

FORT LIARD
NORTHWEST TERRITORIES

60°14'00.000" N
123°28'00.000" W
213.40 m
2201579
71497
WJL

Download Data

Hourly Data (October 2013)
Hourly Data Report for October 31, 2013
Temp Definition
°C
Dew Point Temp Definition
°C
Rel Hum Definition
%
Wind Dir Definition
10's deg

Wind Spd Definition
km/h
Visibility Definition
km
Stn Press Definition
kPa
Hmdx Definition


Wind Chill Definition


Weather Definition


TIME
00:00 -0.3 -3.2 81 21 6   97.13   -2 LegendNANA
01:00 -0.2 -2.9 82 23 4   97.16   -1 LegendNANA
02:00 0.9 -2.5 78 20 4   97.20     LegendNANA
03:00 0.8 -1.9 82 23 4   97.22     LegendNANA
04:00 0.4 -1.1 90 22 7   97.23     LegendNANA
05:00 0.5 -0.8 91 23 4   97.24     LegendNANA
06:00 0.8 -0.9 88 21 6   97.26     LegendNANA
07:00 0.2 -1.8 86 20 9   97.27     LegendNANA
08:00 -0.8 -2.0 92 20 2   97.29   -1 LegendNANA
09:00 -0.8 -1.7 94 20 6   97.32   -3 LegendNANA
10:00 0.6 -0.7 91 21 7   97.36     LegendNANA
11:00 4.5 0.9 77 21 4   97.38     LegendNANA
12:00 10.2 -0.1 49 24 19   97.37     LegendNANA
13:00 12.1 -0.3 42 26 9   97.43     LegendNANA
14:00 11.3 -1.0 42 26 11   97.49     LegendNANA
15:00 10.9 -1.1 43 22 9   97.54     LegendNANA
16:00 10.5 -1.2 44 24 15   97.60     LegendNANA
17:00 9.4 -0.9 49 26 7   97.62     LegendNANA
18:00 6.1 -0.5 63   0   97.67     LegendNANA
19:00 4.2 -0.6 71   0   97.69     LegendNANA
20:00 5.9 -0.4 64 22 13   97.70     LegendNANA
21:00 7.4 -0.9 56 23 7   97.72     LegendNANA
22:00 7.4 -1.3 54 24 7   97.75     LegendNANA
23:00 6.4 -1.3 58 22 13   97.75     LegendNANA

Notes on Data Quality.

Legend

  • E = Estimated
  • M = Missing
  • NA = Not Available
  • ‡ = Partner data that is not subject to review by the National Climate Archives
Date modified: